Back to catalog

COSMOS 2251 DEB

AliveLEO
NORAD 34008·DEBRIS·🇷🇺 Russia

Launched Jun 16, 1993 from Plesetsk Cosmodrome

Loading…

Next Passes (next 24 hours)

TLE

FreshSource: Space-Track

Epoch: Sep 14, 2026, 12:02 UTC

1 34008U 93036GT  26257.50178534  .00000164  00000-0  68729-4 0  9998
2 34008  74.0348 186.4882 0022424 119.5598   1.5567 14.33295326919159

Track COSMOS 2251 DEB in real time with AllMySat

Download on the App Store